Regional Weather Roundup
Issued by NWS

Home | Current Version | Previous Version | Graphics & Text | Print | Product List | Glossary On
Versions: 1 2 3 4 5 6 7 8 9 10 11 12 13 14 15 16 17 18 19 20 21 22 23 24 25 26 27 28 29 30 31 32 33 34 35 36 37 38 39 40 41 42 43 44 45 46 47 48 49 50
000
ASUS43 KLSX 280510
RWRMO

WEATHER SUMMARY FOR MISSOURI
NATIONAL WEATHER SERVICE SPRINGFIELD MO
1200 AM CDT SUN AUG 28 2016

NOTE: "FAIR" INDICATES FEW OR NO CLOUDS BELOW 12,000 FEET WITH NO
       SIGNIFICANT WEATHER AND/OR OBSTRUCTIONS TO VISIBILITY.
       CURRENT SKY AND/OR WEATHER CONDITIONS ARE NOT AVAILABLE FOR
       CHILLICOTHE AND FARMINGTON.

MOZ001>031-035>038-043-044-053-054-280600-
...NORTHERN AND WESTERN MISSOURI...

CITY           SKY/WX    TMP DP  RH WIND       PRES   REMARKS
KANSAS CTY INT MOCLDY    73  68  84 SE6       30.07R
KANSAS C DTWN  CLEAR     74  71  91 CALM      30.05R
LEE`S SUMMIT   CLEAR     77  72  84 SE5       30.08R
ST JOSEPH      CLOUDY    74  69  85 SE6       30.07R
KIRKSVILLE     PTCLDY    72  70  93 SE3       30.10R

$$
MOZ066>068-077>081-088>096-101>105-280600-
...SOUTHWEST MISSOURI...

CITY           SKY/WX    TMP DP  RH WIND       PRES   REMARKS
SPRINGFIELD    CLEAR     75  68  78 S7        30.10R
JOPLIN         CLEAR     74  70  87 CALM      30.08R
BRANSON        CLEAR     73  72  94 CALM      30.11F

$$
MOZ032>034-039>042-045>050-055>058-069>072-280600-
...CENTRAL MISSOURI...

CITY           SKY/WX    TMP DP  RH WIND       PRES   REMARKS
COLUMBIA       CLOUDY    76  74  93 SE6       30.10R
JEFFERSON CITY CLEAR     75  72  90 SE5       30.08R
ROLLA          PTCLDY    73  71  93 E3        30.11R
SEDALIA        CLEAR     74  71  91 S6        30.10R
WHITEMAN AFB   CLEAR     74  74 100 S5        30.07R
OSAGE BEACH    CLEAR     73  71  93 CALM      30.11R

$$
MOZ051-052-059>065-280600-
...EAST CENTRAL MISSOURI...

CITY           SKY/WX    TMP DP  RH WIND       PRES   REMARKS
ST LOUIS INTL  CLOUDY    78  70  76 E6        30.11R
SPIRIT OF STL  CLOUDY    75  74  96 CALM      30.08S
ST CHARLES     CLOUDY    74  73  97 CALM      30.09R

$$
MOZ072>076-082>087-097>100-106>115-280600-
...SOUTH CENTRAL AND SOUTHEAST MISSOURI...

CITY           SKY/WX    TMP DP  RH WIND       PRES   REMARKS
CAPE GIRARDEAU CLEAR     73  72  96 E3        30.09R
FARMINGTON     CLEAR     71  70  96 CALM      30.14R
POPLAR BLUFF   CLEAR     74  72  93 CALM      30.08R
WEST PLAINS    CLEAR     72  69  90 CALM      30.14S

$$




USA.gov is the U.S. government's official web portal to all federal, state and local government web resources and services.